When you browse on this site, cookies collect data to enhance your experience and personalize the content and advertising you see.
Visit our Privacy Policy to learn more. By continuing to use the site, you agree to this use of cookies and data.
  • en Belgique
  • Liste des pays
  • À 7 jours
  • Température de l'eau
  • Carte satellitaire
  • Carte météo
  • Widgets météo
  • user-avatar
    Se connecter

    Météo par heure à Erevan

    Ce jour, 18 Juin, Mardi

    Heure Température Précipitation Vent Pression Humidité
    00:00 +22°C° 0.4 mm 1 m/s 688 mmHg 66%
    01:00 +21°C° 0.1 mm 1 m/s 688 mmHg 67%
    02:00 +21°C° 0.1 mm 1 m/s 688 mmHg 69%
    03:00 +20°C° 0.1 mm 1 m/s 688 mmHg 70%
    04:00 +21°C° 0 mm 1 m/s 688 mmHg 68%
    05:00 +22°C° 0 mm 1 m/s 688 mmHg 65%
    06:00 +22°C° 0 mm 1 m/s 688 mmHg 62%
    07:00 +24°C° 0 mm 1 m/s 688 mmHg 56%
    08:00 +26°C° 0 mm 1 m/s 688 mmHg 50%
    09:00 +28°C° 0 mm 1 m/s 688 mmHg 44%
    10:00 +29°C° 0 mm 1 m/s 688 mmHg 39%
    11:00 +31°C° 0 mm 1 m/s 688 mmHg 33%
    12:00 +33°C° 0 mm 1 m/s 688 mmHg 28%
    13:00 +33°C° 0 mm 1 m/s 688 mmHg 27%
    14:00 +34°C° 0 mm 1 m/s 688 mmHg 25%
    15:00 +34°C° 0 mm 1 m/s 688 mmHg 24%
    16:00 +34°C° 0 mm 2 m/s 688 mmHg 26%
    17:00 +32°C° 0 mm 2 m/s 687 mmHg 28%
    18:00 +31°C° 0 mm 3 m/s 687 mmHg 30%
    19:00 +29°C° 0.2 mm 3 m/s 687 mmHg 36%
    20:00 +27°C° 0.2 mm 2 m/s 687 mmHg 42%
    21:00 +25°C° 0.2 mm 2 m/s 687 mmHg 48%
    22:00 +24°C° 0.2 mm 2 m/s 687 mmHg 53%
    23:00 +23°C° 0.2 mm 1 m/s 687 mmHg 57%

    Demain, 19 Juin, Mercredi

    Heure Température Précipitation Vent Pression Humidité
    00:00 +22°C° 0.2 mm 1 m/s 687 mmHg 62%
    01:00 +22°C° 0.1 mm 1 m/s 687 mmHg 63%
    02:00 +21°C° 0.1 mm 1 m/s 687 mmHg 64%
    03:00 +21°C° 0.1 mm 1 m/s 687 mmHg 65%
    04:00 +22°C° 0.1 mm 1 m/s 687 mmHg 63%
    05:00 +22°C° 0.1 mm 1 m/s 687 mmHg 61%
    06:00 +23°C° 0.1 mm 1 m/s 688 mmHg 59%
    07:00 +24°C° 0 mm 1 m/s 688 mmHg 54%
    08:00 +26°C° 0 mm 1 m/s 688 mmHg 49%
    09:00 +28°C° 0 mm 1 m/s 688 mmHg 43%
    10:00 +29°C° 0.1 mm 1 m/s 688 mmHg 39%
    11:00 +31°C° 0.1 mm 1 m/s 688 mmHg 35%
    12:00 +32°C° 0.1 mm 1 m/s 688 mmHg 31%
    13:00 +33°C° 0 mm 1 m/s 688 mmHg 28%
    14:00 +33°C° 0 mm 1 m/s 688 mmHg 26%
    15:00 +34°C° 0 mm 1 m/s 688 mmHg 23%
    16:00 +35°C° 0 mm 2 m/s 688 mmHg 25%
    17:00 +34°C° 0 mm 3 m/s 688 mmHg 27%
    18:00 +33°C° 0 mm 3 m/s 688 mmHg 29%
    19:00 +30°C° 0 mm 3 m/s 688 mmHg 34%
    20:00 +28°C° 0 mm 3 m/s 688 mmHg 38%
    21:00 +26°C° 0 mm 3 m/s 688 mmHg 43%
    22:00 +25°C° 0 mm 2 m/s 688 mmHg 47%
    23:00 +24°C° 0 mm 2 m/s 688 mmHg 50%

    Après-demain, 20 Juin, Jeudi

    Heure Température Précipitation Vent Pression Humidité
    00:00 +23°C° 0 mm 1 m/s 688 mmHg 54%
    01:00 +23°C° 0 mm 1 m/s 687 mmHg 56%
    02:00 +22°C° 0 mm 1 m/s 687 mmHg 58%
    03:00 +22°C° 0 mm 1 m/s 687 mmHg 59%
    04:00 +23°C° 0 mm 1 m/s 687 mmHg 57%
    05:00 +23°C° 0 mm 1 m/s 687 mmHg 55%
    06:00 +24°C° 0 mm 1 m/s 688 mmHg 52%
    07:00 +26°C° 0 mm 1 m/s 688 mmHg 48%
    08:00 +27°C° 0 mm 1 m/s 688 mmHg 43%
    09:00 +29°C° 0 mm 1 m/s 688 mmHg 38%
    10:00 +30°C° 0.1 mm 1 m/s 688 mmHg 35%
    11:00 +32°C° 0.1 mm 2 m/s 688 mmHg 31%
    12:00 +34°C° 0.1 mm 2 m/s 687 mmHg 27%
    13:00 +35°C° 0 mm 2 m/s 687 mmHg 25%
    14:00 +36°C° 0 mm 3 m/s 687 mmHg 22%
    15:00 +36°C° 0 mm 3 m/s 687 mmHg 20%
    16:00 +35°C° 0 mm 4 m/s 687 mmHg 24%
    17:00 +34°C° 0 mm 5 m/s 686 mmHg 27%
    18:00 +33°C° 0 mm 6 m/s 686 mmHg 31%
    19:00 +30°C° 0.1 mm 5 m/s 687 mmHg 36%
    20:00 +28°C° 0.1 mm 4 m/s 687 mmHg 41%
    21:00 +26°C° 0.1 mm 3 m/s 687 mmHg 46%
    22:00 +25°C° 0.3 mm 3 m/s 687 mmHg 51%
    23:00 +24°C° 0.3 mm 3 m/s 687 mmHg 56%

    21 Juin, Vendredi

    Heure Température Précipitation Vent Pression Humidité
    00:00 +23°C° 0.3 mm 2 m/s 686 mmHg 62%
    01:00 +21°C° 0.6 mm 2 m/s 686 mmHg 64%
    02:00 +21°C° 0.6 mm 2 m/s 686 mmHg 67%
    03:00 +21°C° 0.6 mm 1 m/s 686 mmHg 70%
    04:00 +22°C° 0.2 mm 1 m/s 686 mmHg 68%
    05:00 +22°C° 0.2 mm 1 m/s 686 mmHg 66%
    06:00 +23°C° 0.2 mm 1 m/s 686 mmHg 64%
    07:00 +24°C° 0.1 mm 1 m/s 686 mmHg 58%
    08:00 +26°C° 0.1 mm 1 m/s 687 mmHg 53%
    09:00 +28°C° 0.1 mm 1 m/s 687 mmHg 47%
    10:00 +29°C° 0.1 mm 1 m/s 687 mmHg 42%
    11:00 +31°C° 0.1 mm 1 m/s 687 mmHg 37%
    12:00 +32°C° 0.1 mm 1 m/s 687 mmHg 33%
    13:00 +33°C° 0 mm 1 m/s 687 mmHg 30%
    14:00 +35°C° 0 mm 2 m/s 687 mmHg 28%
    15:00 +36°C° 0 mm 2 m/s 687 mmHg 26%
    16:00 +33°C° 0.6 mm 3 m/s 687 mmHg 34%
    17:00 +29°C° 0.6 mm 4 m/s 687 mmHg 42%
    18:00 +27°C° 0.6 mm 5 m/s 687 mmHg 51%
    19:00 +26°C° 0.2 mm 4 m/s 687 mmHg 55%
    20:00 +25°C° 0.2 mm 3 m/s 688 mmHg 59%
    21:00 +23°C° 0.2 mm 1 m/s 688 mmHg 63%
    22:00 +23°C° 0.1 mm 1 m/s 688 mmHg 64%
    23:00 +22°C° 0.1 mm 1 m/s 688 mmHg 64%

    22 Juin, Samedi

    Heure Température Précipitation Vent Pression Humidité
    00:00 +22°C° 0.1 mm 1 m/s 688 mmHg 64%
    01:00 +21°C° 0 mm 1 m/s 688 mmHg 65%
    02:00 +20°C° 0 mm 2 m/s 688 mmHg 65%
    03:00 +20°C° 0 mm 2 m/s 688 mmHg 66%
    04:00 +21°C° 0 mm 1 m/s 688 mmHg 64%
    05:00 +22°C° 0 mm 1 m/s 688 mmHg 62%
    06:00 +23°C° 0 mm 1 m/s 689 mmHg 60%
    07:00 +24°C° 0 mm 1 m/s 689 mmHg 54%
    08:00 +26°C° 0 mm 1 m/s 689 mmHg 49%
    09:00 +28°C° 0 mm 1 m/s 689 mmHg 43%
    10:00 +29°C° 0 mm 1 m/s 689 mmHg 39%
    11:00 +31°C° 0 mm 1 m/s 689 mmHg 35%
    12:00 +32°C° 0 mm 2 m/s 689 mmHg 32%
    13:00 +34°C° 0 mm 2 m/s 689 mmHg 30%
    14:00 +35°C° 0 mm 2 m/s 689 mmHg 27%
    15:00 +36°C° 0 mm 2 m/s 689 mmHg 25%
    16:00 +35°C° 0 mm 2 m/s 689 mmHg 26%
    17:00 +35°C° 0 mm 3 m/s 689 mmHg 27%
    18:00 +35°C° 0 mm 3 m/s 689 mmHg 28%
    19:00 +33°C° 0 mm 3 m/s 689 mmHg 34%
    20:00 +30°C° 0 mm 3 m/s 689 mmHg 39%
    21:00 +27°C° 0 mm 3 m/s 690 mmHg 45%
    22:00 +26°C° 0.2 mm 3 m/s 690 mmHg 49%
    23:00 +25°C° 0.2 mm 2 m/s 689 mmHg 52%

    23 Juin, Dimanche

    Heure Température Précipitation Vent Pression Humidité
    00:00 +24°C° 0.2 mm 1 m/s 689 mmHg 55%
    01:00 +24°C° 0.1 mm 1 m/s 689 mmHg 58%
    02:00 +23°C° 0.1 mm 1 m/s 689 mmHg 61%
    03:00 +23°C° 0.1 mm 1 m/s 689 mmHg 63%
    04:00 +23°C° 0 mm 1 m/s 689 mmHg 61%
    05:00 +24°C° 0 mm 1 m/s 690 mmHg 59%
    06:00 +25°C° 0 mm 1 m/s 690 mmHg 56%
    07:00 +26°C° 0 mm 1 m/s 690 mmHg 51%
    08:00 +28°C° 0 mm 1 m/s 690 mmHg 46%
    09:00 +30°C° 0 mm 1 m/s 690 mmHg 40%
    10:00 +31°C° 0 mm 1 m/s 690 mmHg 37%
    11:00 +33°C° 0 mm 1 m/s 690 mmHg 33%
    12:00 +35°C° 0 mm 2 m/s 690 mmHg 30%
    13:00 +36°C° 0 mm 2 m/s 690 mmHg 28%
    14:00 +37°C° 0 mm 2 m/s 690 mmHg 26%
    15:00 +38°C° 0 mm 3 m/s 690 mmHg 23%
    16:00 +37°C° 0 mm 3 m/s 690 mmHg 25%
    17:00 +37°C° 0 mm 3 m/s 689 mmHg 26%
    18:00 +36°C° 0 mm 3 m/s 689 mmHg 27%
    19:00 +34°C° 0.1 mm 4 m/s 689 mmHg 35%
    20:00 +30°C° 0.1 mm 5 m/s 689 mmHg 44%
    21:00 +27°C° 0.1 mm 5 m/s 690 mmHg 52%
    22:00 +26°C° 0.5 mm 4 m/s 689 mmHg 57%
    23:00 +25°C° 0.5 mm 3 m/s 689 mmHg 63%
    Voir plus